Wind_Speed
20 20 20 20 20 20 19 19 19 19 19 19 19 19 19 18 18 18 18 18 18 18 18 18 18 18 18 18 18 18 19 19 20 19 19 19 20 20 19 20 20 20 21 22 22 23 23 23 24 24 24 25 25 25 25 25 26 25 25 25 26 26 25 24 25 24 24 24 24 23 23 21 21 22 20 19 20 20 18 19 20 17 18 20 19 19 19 18
23 23 23 23 23 23 23 22 22 22 22 22 22 22 22 21 21 21 21 21 21 21 21 21 21 21 21 21 21 21 22 23 23 23 22 22 23 23 23 23 23 24 24 24 25 25 25 26 26 27 27 27 27 27 27 28 28 27 27 26 27 29 26 26 28 27 26 26 26 26 25 23 23 24 23 21 22 22 19 20 24 20 19 20 21 21 21 21
26 26 26 26 26 26 26 25 25 25 25 25 24 24 24 24 24 24 24 24 24 24 24 24 24 24 23 23 23 24 24 25 26 25 25 25 26 26 26 25 26 26 27 27 27 27 28 28 29 29 29 29 29 30 29 30 30 28 28 26 29 31 27 29 30 29 29 28 28 28 27 26 26 26 24 24 24 22 20 24 26 23 20 21 22 22 23 23
30 29 29 29 29 29 29 28 28 28 28 28 28 27 27 27 27 27 26 26 27 26 26 26 26 26 26 25 25 25 25 27 27 27 26 27 28 28 28 28 28 28 29 29 29 29 29 29 30 30 30 31 31 31 31 32 32 30 29 28 30 31 28 30 32 30 31 30 29 29 29 28 28 27 25 26 25 21 23 27 27 24 23 23 22 23 24 24
33 33 33 32 32 32 32 32 31 31 31 31 31 31 30 30 30 29 29 29 29 29 28 28 28 27 27 26 26 25 26 27 28 27 27 28 28 28 28 29 29 29 29 30 30 30 30 30 30 31 31 31 32 31 32 33 33 30 29 30 31 32 30 30 33 32 32 32 31 31 30 29 29 27 27 28 26 23 26 27 27 26 25 24 22 22 24 25
36 36 35 35 35 35 34 34 34 34 34 34 34 33 33 33 32 32 31 31 30 30 30 29 29 28 28 27 26 25 26 28 28 28 28 28 28 28 27 27 27 28 28 28 29 30 30 30 30 30 30 31 31 31 32 34 34 30 28 30 32 33 31 30 34 33 33 33 32 33 32 30 30 29 28 28 25 25 28 28 28 28 27 26 24 24 25 27
38 38 38 37 37 37 37 37 36 36 36 36 36 35 35 34 34 33 33 32 31 31 30 30 29 29 28 27 26 25 24 27 28 27 27 27 26 26 26 26 27 26 27 28 28 29 30 30 30 31 30 30 30 30 32 33 34 31 28 30 33 34 32 31 33 33 34 34 33 35 33 31 32 31 28 26 24 27 31 30 29 30 29 27 25 25 27 28
39 39 39 38 38 38 37 37 37 37 36 36 36 35 35 34 34 33 33 33 32 32 31 31 30 29 28 26 25 22 22 27 29 26 26 26 26 26 27 27 27 27 27 28 28 30 31 31 31 33 32 31 31 30 32 34 34 32 29 30 32 33 33 32 33 33 34 34 35 36 34 33 34 33 27 23 23 28 33 32 31 31 29 27 26 27 29 29
36 37 37 36 36 36 36 36 35 35 35 35 34 34 34 33 33 33 33 33 33 32 32 32 30 30 28 26 25 21 23 30 30 28 28 29 29 29 29 28 28 28 28 29 30 32 33 33 34 35 34 32 32 31 33 35 34 33 33 32 31 31 32 32 32 33 34 34 36 38 37 36 36 35 25 19 24 30 33 33 32 31 29 27 28 29 30 31
34 34 34 34 34 34 34 34 34 34 34 34 34 34 34 34 34 34 34 34 34 33 32 33 31 31 30 29 27 22 26 34 32 31 32 32 32 31 30 30 29 29 30 32 34 35 36 37 38 38 38 35 33 32 34 35 35 35 35 34 32 32 31 30 31 32 34 34 36 41 41 38 37 34 23 16 26 33 34 33 31 31 29 28 29 30 31 31
34 33 33 33 33 33 33 33 33 33 34 34 34 35 35 35 34 34 34 34 34 34 34 34 34 34 33 32 29 25 30 36 34 33 34 34 34 32 32 31 31 32 33 34 36 37 37 38 39 39 39 38 35 35 35 36 37 37 37 36 32 33 31 28 29 31 33 35 36 42 45 41 38 31 21 18 28 34 35 33 30 30 29 28 29 29 31 30
35 35 35 34 34 34 34 34 34 34 35 35 36 36 36 36 35 35 35 36 36 36 36 37 38 37 37 34 29 29 33 35 35 35 36 36 36 35 34 33 33 35 35 36 37 37 37 38 39 39 39 39 36 36 37 36 38 38 39 39 33 34 32 25 28 31 33 36 37 43 47 42 36 27 19 22 29 33 35 33 31 31 30 29 29 29 30 29
38 38 38 38 37 37 37 37 37 37 37 38 38 38 39 38 38 37 37 39 39 39 39 41 41 41 41 36 30 33 35 35 35 37 38 39 38 37 36 36 35 36 36 36 37 37 38 38 40 40 39 38 35 35 36 36 38 37 39 41 36 36 32 23 27 32 33 37 37 44 48 40 32 25 20 25 30 34 35 33 31 32 32 31 29 29 29 29
41 41 41 41 41 40 40 39 39 39 39 40 40 41 41 40 40 39 40 41 41 41 41 43 43 44 44 37 32 35 36 36 37 39 41 41 39 38 37 37 37 36 37 37 37 38 39 40 42 42 39 38 36 36 37 38 38 36 38 40 37 39 34 24 29 34 34 37 38 44 49 42 32 25 22 26 31 34 36 34 32 34 34 33 31 30 29 29
42 42 42 42 42 42 42 42 41 41 41 41 42 42 42 43 42 41 41 42 42 43 43 44 44 44 45 38 32 34 35 36 39 40 42 41 40 39 38 38 38 38 39 39 39 40 41 42 44 43 41 39 37 37 40 41 39 35 39 40 37 41 41 33 33 35 35 37 39 44 50 47 38 28 24 28 32 35 38 36 34 35 35 35 34 33 31 29
44 44 44 44 44 44 44 44 43 43 43 43 43 44 44 45 44 43 43 42 43 43 43 44 43 44 46 39 33 34 35 37 40 42 42 41 41 39 38 39 39 39 40 41 41 42 42 45 46 45 43 39 36 38 43 45 39 35 40 43 41 43 46 42 35 33 34 38 42 46 51 50 43 33 28 30 33 36 40 38 35 35 35 35 35 34 33 31
47 46 46 46 46 46 45 45 45 45 45 45 45 45 45 46 46 45 44 43 43 44 44 45 44 46 47 41 36 35 35 38 41 42 42 42 41 40 41 41 41 41 42 42 43 43 44 47 48 47 45 39 36 39 46 47 40 36 41 47 48 47 47 46 39 32 33 39 44 48 51 51 45 39 35 33 34 38 41 39 37 37 35 35 35 34 34 33
49 48 48 48 48 47 47 47 46 46 46 46 46 46 46 47 47 47 46 45 45 45 46 46 46 48 47 43 41 39 37 39 41 41 41 41 41 42 42 43 43 43 44 44 44 44 46 49 50 50 46 39 36 40 47 47 43 42 45 49 51 49 48 47 42 35 35 40 44 48 50 49 45 42 39 37 37 40 41 40 38 37 36 35 35 36 35 35
50 50 50 50 49 49 49 48 48 47 47 48 48 47 47 48 49 49 48 47 47 47 49 48 48 50 50 46 45 44 42 42 41 41 40 39 41 42 44 45 45 46 46 46 46 46 49 51 53 52 46 38 37 42 48 46 44 46 49 50 51 51 49 47 43 38 39 45 47 48 49 48 45 42 38 35 36 40 40 39 38 37 37 36 36 37 36 35
52 52 51 51 51 51 50 50 50 49 49 49 49 49 49 49 50 51 51 50 49 49 51 51 51 51 51 49 49 49 48 45 43 40 38 37 39 41 44 46 47 48 48 47 48 50 51 53 55 51 43 38 40 44 47 46 46 49 51 52 52 52 50 45 44 41 42 49 50 49 50 48 45 43 39 35 35 37 35 34 36 36 37 38 38 38 36 36
53 53 53 52 52 52 52 52 51 51 51 51 51 51 51 51 52 52 53 52 52 52 53 53 54 53 51 51 52 52 51 48 44 40 39 38 38 40 42 43 46 48 48 49 51 52 52 55 54 47 41 41 45 46 47 48 49 51 52 53 53 52 49 46 46 44 45 51 51 50 51 48 46 45 42 38 35 35 34 32 32 33 36 39 39 38 36 36
54 54 54 54 54 53 53 53 53 53 52 52 53 53 53 54 54 55 56 56 54 54 56 55 56 55 53 52 53 53 53 50 44 42 41 39 39 40 41 43 45 46 48 50 52 51 54 56 51 45 44 46 48 47 48 49 51 52 52 53 53 51 50 49 48 46 48 51 50 51 53 50 48 46 42 40 36 34 34 31 29 29 31 35 37 37 36 35
56 55 55 55 55 55 55 55 55 54 54 54 54 55 55 56 57 58 59 59 57 55 56 56 56 56 55 54 54 54 54 50 47 45 43 42 42 42 43 44 46 47 50 50 49 50 55 54 48 45 47 48 48 48 49 50 51 52 52 53 53 50 50 52 52 50 50 51 50 51 52 50 49 46 42 38 34 32 32 32 30 28 27 28 30 33 35 33
58 57 57 57 57 56 56 56 56 56 56 56 57 57 57 58 58 59 60 62 60 57 55 55 56 58 57 56 56 55 53 51 49 46 45 45 45 44 45 46 48 49 49 47 47 51 54 52 48 48 48 49 49 50 50 50 51 52 52 52 52 50 51 53 53 53 52 51 51 51 51 48 47 46 40 35 33 32 33 34 33 29 28 30 29 31 34 34
59 59 59 59 59 58 58 58 57 57 57 57 58 58 58 59 59 60 61 62 63 60 57 56 57 57 57 56 55 53 53 52 49 48 47 47 47 47 48 49 50 49 47 46 47 52 52 49 47 48 48 48 50 50 49 49 51 53 52 51 50 51 53 53 52 53 53 52 52 52 51 46 43 45 41 36 35 34 34 34 32 29 29 32 32 31 33 34
62 61 60 60 60 60 60 59 59 59 58 58 59 59 59 60 60 61 62 63 64 61 60 60 58 56 55 54 54 53 53 51 49 49 49 47 46 47 49 49 48 47 46 46 49 54 52 46 45 47 48 49 50 51 47 45 50 54 53 50 49 51 52 52 52 53 52 52 53 53 54 49 42 43 43 39 37 36 34 32 31 28 25 28 31 31 30 31
62 64 64 62 62 61 61 60 60 60 60 59 59 59 60 60 61 61 61 63 65 63 63 64 60 57 55 55 55 54 53 52 50 50 49 48 48 48 49 49 46 45 45 46 50 52 49 45 45 46 48 51 52 49 45 44 50 54 52 51 51 51 52 52 53 54 53 53 53 53 57 55 46 41 43 43 41 39 35 33 31 28 23 22 27 31 31 29
55 59 62 63 64 63 63 62 63 63 62 61 60 60 61 61 62 61 60 64 67 65 64 65 62 60 58 56 57 56 55 54 52 51 51 51 51 50 50 49 48 47 46 49 51 50 48 47 47 47 49 51 50 48 46 48 51 52 52 53 54 54 54 54 54 55 55 54 53 53 56 57 50 43 46 48 46 43 39 38 38 34 29 24 24 30 32 31
51 53 55 58 60 61 63 63 64 64 63 62 62 62 62 62 62 61 61 65 67 67 66 65 64 64 62 60 59 58 59 58 56 55 53 53 52 52 51 50 50 50 49 52 53 51 50 50 50 51 52 50 49 50 50 51 51 51 52 54 55 55 55 55 55 55 56 55 54 54 55 56 51 44 46 49 49 49 47 47 47 44 40 34 28 29 32 32
53 54 55 55 55 55 56 57 59 60 60 61 61 61 61 61 62 61 63 67 68 68 66 64 64 64 63 61 59 59 59 58 57 56 54 53 53 52 51 50 50 51 51 53 54 53 52 52 53 54 52 51 52 53 53 53 53 52 52 52 54 55 55 57 57 56 59 57 53 54 54 55 52 47 48 50 51 54 55 54 54 52 51 47 39 34 33 32
55 56 57 57 56 55 53 52 54 55 57 58 59 60 61 62 61 62 66 67 66 65 63 62 63 63 61 60 58 57 57 56 55 53 52 51 51 51 51 50 50 51 52 53 54 53 54 55 55 54 54 54 55 55 55 54 53 52 51 51 52 54 56 57 58 59 61 58 53 54 54 54 54 52 52 54 56 58 58 59 60 58 58 56 50 43 40 36
56 57 59 59 58 56 53 52 52 54 55 56 56 56 58 60 59 60 63 60 59 60 58 57 59 58 58 56 55 54 54 53 52 51 50 49 48 49 50 49 49 50 51 50 51 51 52 53 54 54 54 54 54 55 54 53 52 51 51 51 52 54 57 60 61 61 62 59 56 56 56 58 59 57 57 59 59 60 60 61 64 63 62 61 59 53 48 44
56 57 57 57 56 54 52 51 51 52 53 54 55 55 57 58 56 55 55 52 52 52 50 50 52 52 52 51 51 51 52 52 51 51 51 50 49 47 47 48 48 50 50 50 50 51 50 49 49 50 50 49 51 52 52 53 53 53 53 53 53 55 59 62 61 62 62 61 59 58 60 65 66 62 61 61 60 62 63 64 64 65 64 62 62 61 55 52
55 55 55 54 53 51 51 52 53 53 54 55 56 57 58 57 54 52 51 50 52 53 51 52 53 52 51 50 50 51 52 53 53 53 54 55 54 51 49 49 50 51 52 52 52 52 52 49 47 49 49 48 50 51 52 53 54 55 55 54 56 58 60 60 59 60 63 63 62 63 67 72 70 67 65 64 64 66 68 68 66 64 63 61 62 64 61 58
53 54 55 54 53 51 52 54 54 55 56 56 56 58 60 59 55 53 51 51 53 54 53 54 54 54 54 52 52 53 54 56 55 55 56 57 58 56 55 55 55 55 56 56 55 54 55 52 48 53 55 52 52 53 53 54 55 56 56 58 60 59 56 57 57 59 61 63 66 71 75 77 74 72 70 68 69 69 70 71 70 66 64 62 62 63 64 62
55 54 54 54 54 53 54 55 55 56 57 57 58 61 62 61 59 57 56 55 55 55 55 54 54 54 54 54 54 54 55 57 58 58 58 58 58 58 58 58 58 58 58 58 57 58 60 57 53 57 61 59 59 58 57 58 59 60 61 62 62 59 57 60 63 62 62 66 70 74 78 79 76 75 73 70 71 71 70 70 70 68 67 65 63 63 64 63
60 59 57 55 56 57 58 58 58 59 60 61 63 64 64 63 61 60 59 59 59 59 59 59 58 57 57 57 56 57 58 60 61 62 62 61 61 62 61 61 62 62 61 61 59 60 63 62 60 61 64 66 66 65 65 65 65 65 66 65 65 65 66 67 69 69 70 73 76 76 77 77 76 76 75 72 72 71 71 71 70 69 67 66 64 64 64 65
65 65 64 61 61 62 61 61 62 63 64 66 67 67 65 64 62 61 60 61 61 63 64 65 65 64 64 62 61 62 64 65 66 66 67 66 66 67 66 66 66 66 65 64 64 63 63 64 65 66 69 71 70 71 72 72 72 71 70 70 70 71 72 72 73 73 74 76 78 77 78 78 77 76 75 73 71 70 70 71 70 67 67 67 67 66 67 68
69 69 69 67 66 65 65 65 65 65 67 70 71 69 68 67 66 65 65 65 65 67 69 69 69 70 70 69 67 67 68 69 70 70 70 70 70 70 69 69 69 69 68 66 65 65 63 64 65 63 65 69 70 72 74 74 73 72 71 71 70 71 71 71 72 72 72 74 75 77 78 77 75 73 72 71 70 69 68 67 66 65 64 65 66 68 69 69
70 71 71 69 67 65 65 66 67 68 70 72 72 71 72 71 70 68 68 68 68 69 70 70 71 73 73 72 71 71 72 73 74 74 74 74 73 72 71 71 70 70 71 67 65 66 65 67 68 63 62 67 69 71 72 70 69 69 68 67 67 67 67 67 67 66 68 71 74 75 77 75 68 61 63 67 67 67 66 65 64 63 63 63 63 65 68 68
71 71 71 70 67 65 66 67 68 70 72 73 73 73 73 72 71 71 70 70 70 69 70 70 71 72 73 73 72 72 74 75 76 77 78 78 77 76 74 74 72 72 73 71 70 71 71 73 75 72 70 72 71 71 71 71 70 69 68 67 67 65 61 61 63 62 64 70 73 74 77 75 63 49 51 59 63 65 66 65 64 63 63 64 63 63 65 67
72 71 71 70 69 68 68 69 70 71 73 74 73 72 71 71 72 73 73 73 72 71 71 71 71 71 72 72 72 72 74 76 77 78 79 80 80 79 77 76 74 73 74 74 74 75 74 74 77 78 78 77 75 75 75 74 72 70 70 68 66 64 61 61 63 60 60 65 67 69 75 75 64 51 50 56 60 63 65 66 68 67 67 67 66 66 67 66
74 73 72 72 71 70 70 71 72 73 74 73 71 70 71 71 72 73 73 74 73 72 72 71 71 70 70 70 70 72 73 75 77 77 78 79 80 79 77 76 75 74 74 74 75 75 74 75 77 79 81 81 79 78 77 75 71 70 69 66 62 61 59 59 60 58 60 62 62 67 73 73 64 55 53 55 58 62 64 65 66 68 69 70 71 70 68 64
74 74 74 73 73 73 74 74 74 73 72 71 70 71 72 72 72 72 72 73 73 72 72 72 71 70 70 69 69 70 71 73 76 76 76 77 78 76 75 75 74 74 74 75 75 76 76 77 79 79 81 83 83 82 80 78 74 73 72 68 66 65 63 65 67 69 73 73 71 76 82 76 66 58 53 50 50 53 57 61 65 69 70 72 74 72 65 59
73 73 72 72 73 74 74 74 73 73 73 72 72 72 71 72 73 71 71 73 74 74 74 74 74 73 72 72 72 73 73 73 75 76 76 77 76 75 74 74 74 74 75 75 74 76 77 78 79 80 81 83 84 83 81 79 78 78 77 76 75 74 74 78 81 83 86 86 85 89 90 86 79 72 66 59 54 52 52 53 57 63 68 70 72 70 63 58
72 72 71 71 71 72 73 72 72 73 73 72 73 73 72 72 72 70 71 73 74 74 74 75 75 75 75 76 76 77 76 75 76 77 77 77 77 77 76 76 76 76 76 76 75 75 77 78 79 80 81 83 84 83 81 80 81 82 83 82 81 80 81 83 86 89 91 92 93 94 93 92 88 82 76 73 71 69 66 61 59 61 65 68 69 67 65 63
73 72 71 71 72 73 72 72 72 73 72 72 73 74 72 72 72 71 72 73 73 73 73 74 74 75 76 76 76 77 77 77 77 78 78 78 78 79 78 78 79 79 78 78 77 77 77 77 78 79 80 80 81 81 81 80 81 81 81 81 81 80 80 81 84 87 87 89 93 94 91 91 89 85 82 81 79 78 77 76 76 75 76 77 75 72 70 68
73 73 72 73 74 73 73 73 72 72 72 72 73 73 72 72 72 72 72 72 72 72 73 75 74 74 74 74 75 77 77 76 77 77 77 77 78 78 77 76 77 78 78 78 78 78 77 77 77 78 78 76 75 76 77 79 80 80 78 77 76 76 75 77 81 84 85 86 89 87 85 86 87 83 80 79 76 76 76 77 80 83 85 87 85 82 79 76
72 72 72 74 74 73 73 73 72 72 72 71 72 73 72 72 72 71 71 72 72 72 72 74 73 73 73 73 74 75 75 75 75 75 76 76 76 77 76 75 76 76 76 76 77 77 76 76 76 76 76 74 73 74 74 74 76 76 75 74 73 74 75 78 81 82 82 84 85 83 83 82 79 75 72 70 70 71 73 75 77 79 82 85 87 88 89 89
72 72 72 73 73 72 72 72 72 72 72 71 72 73 71 71 70 69 69 71 71 71 71 72 73 72 72 72 73 73 73 73 74 74 75 75 74 74 74 73 71 71 70 70 71 71 72 74 76 76 76 75 74 73 72 70 69 71 73 72 72 74 78 80 80 78 79 81 82 81 79 76 73 70 70 71 71 73 74 75 76 78 78 79 81 84 87 90
74 74 73 73 73 72 72 72 72 72 73 72 72 72 70 70 71 70 70 70 69 69 70 71 72 72 72 71 71 72 71 70 70 70 70 69 67 66 65 64 63 63 62 62 64 67 69 71 71 70 71 71 68 67 68 66 64 66 70 71 72 74 76 77 77 76 76 77 78 78 78 80 80 80 80 80 79 78 76 75 74 74 74 74 75 76 78 81
76 76 76 76 75 73 73 73 72 72 73 71 71 71 70 69 70 70 70 70 70 69 69 69 70 71 71 70 70 70 69 69 69 69 67 66 65 65 65 65 65 66 66 65 66 68 67 68 66 64 67 70 69 69 71 70 70 71 70 69 69 68 68 70 71 72 74 77 79 79 79 80 82 81 80 78 77 75 72 71 70 69 67 65 65 67 69 72
Wind_Direction
256 258 260 262 264 265 267 268 270 271 273 274 275 276 276 276 277 277 278 278 280 281 281 283 283 284 286 287 289 290 291 291 291 291 292 292 291 292 293 292 293 293 294 295 296 297 297 297 296 297 297 297 297 297 296 296 296 297 298 299 297 296 298 299 297 297 297 296 297 296 296 297 294 294 296 296 296 296 295 291 292 293 292 295 297 298 299 299
258 260 262 263 265 266 267 269 269 271 272 273 274 275 275 276 276 277 277 278 278 279 280 280 281 282 283 284 285 287 288 289 289 289 290 290 290 291 291 291 291 291 292 293 293 294 294 294 294 294 294 294 294 293 293 291 292 294 295 295 291 292 296 294 293 294 293 293 293 292 292 291 289 290 294 294 292 294 291 283 287 290 286 287 291 292 293 294
258 260 261 263 265 266 267 268 269 270 271 272 273 273 274 274 275 276 276 277 277 278 278 278 279 279 280 281 282 283 285 286 286 286 288 289 289 289 290 291 290 291 291 291 291 292 292 292 292 292 292 291 291 291 290 289 289 291 293 291 287 289 293 291 291 291 291 291 290 289 288 288 287 289 292 291 292 292 282 277 285 290 285 281 284 286 288 288
258 259 261 262 264 265 267 268 269 270 270 271 272 272 272 273 274 274 275 276 276 276 277 277 277 278 278 279 279 281 282 282 283 284 285 285 286 287 289 289 289 290 290 290 291 290 290 291 291 290 290 289 289 290 289 287 288 291 292 289 286 288 290 290 289 289 290 289 288 286 286 286 286 288 289 290 294 287 275 277 284 287 282 280 282 282 282 282
259 260 261 262 264 265 267 268 269 270 271 272 272 272 272 272 273 273 273 274 274 274 275 275 275 276 276 277 278 279 281 281 282 283 283 282 284 285 286 286 287 288 288 289 289 289 290 290 289 289 288 288 289 289 288 286 288 291 290 287 286 286 288 289 288 288 288 287 286 284 284 285 285 286 288 292 295 284 274 278 282 284 282 281 281 277 276 276
261 261 262 263 264 266 267 268 270 271 272 272 272 273 272 273 273 273 273 273 273 273 273 273 273 274 274 275 276 277 280 281 281 281 282 282 284 284 285 286 286 287 288 289 289 290 290 290 290 288 287 288 289 289 288 288 289 290 288 286 285 285 288 287 285 288 287 286 285 283 283 284 283 284 287 294 295 282 276 278 282 284 282 281 278 273 270 270
262 263 263 264 265 266 267 268 269 270 271 271 272 272 273 273 273 273 273 272 273 272 272 272 272 273 273 273 274 276 280 280 278 279 281 283 284 285 286 287 288 289 290 290 291 292 291 292 291 288 288 290 290 290 290 289 290 292 290 285 284 287 290 286 285 287 287 286 285 284 284 283 283 284 289 297 293 280 278 280 283 284 284 283 278 272 268 267
262 263 264 265 266 267 268 268 269 270 270 270 271 271 272 272 272 273 272 273 272 273 273 272 272 272 272 273 274 277 280 278 277 280 281 283 284 285 286 286 288 289 290 292 293 293 294 294 291 290 292 292 291 292 292 290 292 294 290 285 286 288 288 286 286 287 286 287 286 284 283 282 282 285 293 298 286 276 278 283 285 286 287 284 277 271 268 267
261 262 263 264 265 266 267 267 268 269 269 270 270 271 271 271 272 272 272 272 272 272 272 272 272 272 273 274 275 280 282 277 278 282 283 284 284 284 285 286 287 288 289 291 293 293 293 292 291 292 292 291 292 292 290 290 292 292 290 289 289 288 287 287 288 287 286 285 284 282 281 280 281 286 298 298 280 275 278 283 286 288 288 284 279 273 270 268
260 261 261 262 263 264 265 266 267 268 269 269 270 270 271 271 271 271 272 272 271 271 271 271 272 272 274 274 276 283 280 276 280 283 284 284 282 282 283 284 286 287 289 291 292 291 291 290 291 291 290 290 290 290 289 290 291 290 290 290 290 289 287 289 290 287 284 282 281 281 279 279 281 289 300 289 276 276 279 283 285 288 289 286 283 278 273 270
261 261 261 262 262 263 264 265 266 267 268 269 270 270 271 271 271 271 272 272 272 271 271 272 272 273 273 274 278 280 275 277 281 283 282 281 280 280 281 282 284 285 288 291 290 290 290 289 289 288 288 288 288 288 287 288 289 288 288 289 290 288 288 292 290 285 282 280 280 279 280 281 285 293 299 279 272 276 281 285 287 287 288 286 287 285 279 274
261 262 262 262 262 263 264 264 265 266 268 269 269 270 270 270 271 272 273 273 273 273 273 274 274 274 274 275 279 277 274 278 282 281 280 278 277 279 280 281 281 283 286 288 288 289 288 288 287 287 287 287 288 288 287 287 287 287 288 287 287 286 288 293 287 281 278 277 278 279 281 285 289 297 294 275 271 275 282 286 288 287 285 285 287 289 287 280
261 262 263 263 263 264 264 265 266 267 267 268 269 269 270 271 271 272 273 273 274 274 275 275 275 276 275 277 278 276 277 279 280 280 278 276 277 279 279 279 278 279 282 284 285 285 285 286 286 285 286 288 289 289 289 288 287 288 288 286 287 285 286 288 280 275 273 276 280 281 283 288 293 295 285 273 273 276 281 285 287 287 285 286 287 289 291 288
261 262 263 263 264 264 265 265 266 266 267 268 268 269 270 270 270 271 271 272 273 274 274 275 275 276 276 277 277 276 278 278 277 275 275 276 278 278 277 277 277 278 279 280 281 282 282 283 283 283 285 287 289 291 291 290 288 290 289 288 291 286 281 275 268 268 272 278 283 283 284 287 288 287 281 274 273 276 280 283 286 286 286 286 286 287 289 290
262 262 263 263 264 264 264 265 265 266 266 267 267 268 269 269 269 269 269 270 271 272 273 273 274 275 275 276 276 276 277 276 275 274 274 276 277 276 276 276 276 276 276 277 279 280 281 281 281 281 283 285 289 292 291 289 289 294 293 291 290 283 278 271 266 271 278 281 281 280 282 283 283 283 278 272 272 275 278 280 283 285 286 286 286 287 288 288
262 263 263 264 264 264 265 265 265 265 265 266 267 267 268 268 269 269 268 269 269 270 271 272 273 274 275 275 275 275 275 275 274 275 275 275 275 275 276 275 275 274 274 276 277 278 279 279 279 280 282 284 288 292 290 288 292 297 293 288 285 281 280 279 277 281 284 282 279 278 278 279 280 280 275 270 270 272 274 277 280 282 284 287 288 287 287 285
262 262 263 263 264 264 265 265 265 266 266 266 266 267 268 268 268 268 268 268 269 269 270 271 273 273 275 277 276 274 275 275 274 274 274 275 275 276 275 274 274 274 274 275 275 277 278 278 278 279 279 282 288 291 288 289 293 292 286 284 284 284 285 287 288 290 287 283 280 277 277 278 280 279 274 269 267 269 272 275 278 279 282 286 286 284 283 282
262 262 262 263 263 264 264 265 265 266 266 266 266 266 267 268 268 268 269 269 269 270 270 271 272 273 276 278 278 277 277 276 275 274 274 274 275 275 275 275 274 274 274 274 275 276 276 276 276 276 277 282 289 289 286 287 289 287 283 283 283 285 287 289 293 296 291 284 280 279 280 281 281 278 274 271 268 269 273 276 279 280 280 281 279 277 277 278
261 261 262 262 263 264 264 265 265 265 266 266 266 266 267 268 268 269 269 269 270 271 271 272 273 274 277 278 279 279 278 277 276 275 275 275 275 275 275 275 275 274 273 273 274 274 273 274 274 275 279 287 288 283 281 283 284 284 282 281 283 285 286 290 295 297 294 287 282 282 283 284 283 282 281 278 274 272 275 278 280 279 278 276 273 271 273 277
261 261 262 262 263 263 264 264 265 265 266 266 267 266 266 267 268 269 269 270 271 271 272 274 274 274 277 279 279 279 278 278 278 278 279 279 277 275 273 273 274 273 273 273 273 271 271 272 273 276 284 287 281 276 276 279 280 280 280 281 283 284 286 291 293 293 294 288 284 285 284 284 286 288 288 286 282 280 280 280 279 277 275 273 271 270 272 275
261 261 262 262 263 263 264 264 265 265 265 266 267 267 267 267 267 267 268 269 270 272 273 274 276 276 277 278 278 279 279 279 280 281 280 279 277 275 275 274 273 272 272 271 270 270 271 272 274 279 283 278 273 272 274 276 277 277 279 281 282 284 286 289 290 291 291 286 286 288 287 285 287 288 290 290 290 290 290 286 282 278 274 273 273 273 272 272
261 261 262 262 262 263 263 264 265 265 265 266 266 267 268 268 268 268 268 268 269 272 273 275 277 278 278 278 278 278 278 280 282 281 279 278 277 277 276 275 274 273 271 268 268 270 271 272 275 278 275 271 271 273 274 274 275 276 278 280 280 283 286 285 286 288 286 285 286 289 288 286 286 287 289 291 294 296 294 292 288 281 276 276 277 277 274 271
261 262 262 262 262 263 263 264 265 265 266 266 267 267 268 269 269 270 270 270 269 270 273 275 276 277 277 278 278 278 279 281 282 280 279 278 278 277 276 275 274 272 269 269 270 271 271 272 273 272 270 271 272 273 273 273 274 275 277 278 279 283 285 283 284 285 284 284 285 287 286 285 286 286 287 291 295 297 295 293 290 287 286 286 284 282 278 273
262 262 262 262 263 263 263 264 264 265 266 267 268 268 269 270 270 271 271 272 272 271 272 274 275 276 276 277 278 279 280 281 280 279 279 278 277 277 276 275 273 271 272 273 272 271 271 272 271 271 271 272 272 272 272 272 273 274 275 277 278 281 282 281 283 285 284 283 284 286 284 282 285 286 286 292 295 293 291 289 289 294 298 295 289 285 282 276
262 262 262 263 263 263 264 264 264 265 266 267 268 269 270 270 271 272 272 273 274 274 274 273 272 274 275 277 278 279 279 279 279 278 278 277 278 278 276 275 274 273 274 273 271 269 269 270 272 272 272 271 271 270 271 271 273 275 275 275 277 278 279 280 282 283 284 284 285 286 284 281 283 286 291 297 294 288 285 285 288 294 298 296 292 287 284 281
261 262 262 263 263 264 264 265 265 265 266 267 268 268 270 270 271 272 273 274 275 275 275 274 272 273 275 276 277 277 277 277 277 276 276 278 279 278 277 276 275 274 272 270 268 267 268 270 271 271 271 270 270 270 271 273 274 275 275 275 276 277 278 279 280 280 282 284 285 285 284 282 281 287 296 300 293 288 287 288 290 296 298 295 294 292 286 281
263 262 261 261 262 263 264 265 266 266 267 268 268 269 270 270 271 272 274 275 275 275 275 274 274 275 275 276 275 275 275 274 274 274 275 276 277 278 277 276 275 273 271 269 267 267 269 270 268 268 269 269 270 272 274 274 273 275 277 277 277 276 276 277 277 278 279 280 281 281 282 284 286 291 299 298 292 290 293 294 295 297 298 293 293 296 293 285
266 265 263 262 262 263 264 266 266 267 267 268 269 270 270 271 271 272 273 274 274 274 274 275 277 278 277 276 274 274 273 273 273 272 273 274 274 274 274 274 272 270 269 268 268 269 269 268 267 267 267 268 270 273 274 272 273 275 277 277 277 277 276 276 277 277 278 277 277 277 280 286 288 290 294 293 292 295 299 299 299 299 298 294 291 292 294 292
265 265 265 264 263 264 265 266 266 267 268 268 268 268 269 269 269 270 270 271 273 274 274 276 278 278 277 276 275 273 273 273 273 272 272 273 272 271 271 271 269 268 267 267 268 268 268 268 268 267 267 269 271 272 271 271 273 274 275 275 277 277 277 277 277 277 277 275 275 278 283 289 289 284 284 286 290 296 299 301 302 301 300 298 295 291 288 289
262 263 262 263 263 264 265 265 266 266 267 267 266 267 267 267 267 268 268 269 272 273 275 276 276 276 276 276 275 273 271 271 271 272 272 273 273 270 268 268 266 266 265 266 267 267 266 267 267 267 269 270 270 269 269 270 271 272 273 274 275 275 276 276 275 276 276 275 277 281 284 288 287 280 279 283 288 294 298 302 302 301 299 297 295 292 288 285
261 262 262 262 263 264 265 266 267 267 267 267 267 268 268 267 267 266 267 270 272 272 273 273 273 273 274 274 274 273 272 271 271 271 271 272 272 270 268 267 266 266 265 266 268 267 266 266 266 267 268 269 269 269 270 269 269 270 271 271 272 273 273 273 274 275 275 278 283 285 285 285 282 277 279 283 286 291 296 300 299 299 298 296 294 292 288 284
261 263 264 265 265 265 266 267 268 269 270 270 270 270 270 269 267 266 268 270 271 270 270 270 270 271 271 272 273 273 274 274 274 273 273 271 269 267 267 268 268 268 268 268 268 267 266 266 267 267 266 267 269 269 270 269 269 268 268 268 269 271 271 271 273 274 276 281 285 285 284 281 275 275 279 282 285 289 291 292 294 296 295 294 294 291 287 284
261 263 265 267 266 266 267 268 269 270 270 270 269 269 268 267 267 267 268 267 266 269 271 270 270 270 269 270 271 273 275 275 276 276 275 274 270 266 265 267 269 270 270 269 268 268 268 267 267 268 267 268 268 268 268 268 268 268 267 268 268 269 270 270 272 274 277 281 281 279 278 276 276 278 281 283 285 285 285 286 290 293 292 291 290 289 286 284
261 262 263 263 264 263 263 264 264 264 265 266 266 265 264 264 266 267 266 264 264 267 270 270 271 270 268 269 271 273 275 274 273 273 274 274 273 270 267 268 269 269 270 269 267 267 268 266 265 267 267 266 267 268 269 269 268 268 269 269 269 271 272 272 274 276 278 277 275 274 274 276 279 281 282 284 284 283 284 285 288 290 289 288 288 288 287 286
258 258 258 258 257 257 257 258 257 258 259 260 261 261 260 261 263 264 263 263 263 265 266 268 269 269 268 268 270 271 273 274 273 272 272 272 273 273 271 271 271 271 271 269 268 267 266 264 263 265 266 266 267 268 269 270 270 269 269 270 272 275 276 275 274 275 275 273 273 275 276 278 280 280 281 282 283 283 284 286 288 290 287 285 284 285 286 288
258 258 257 255 256 257 258 258 258 259 259 258 259 258 257 259 260 261 261 261 263 265 266 266 267 267 266 266 268 270 271 273 274 273 273 272 273 272 272 273 273 272 271 271 271 270 268 265 263 265 268 269 270 270 271 272 272 271 271 272 275 277 277 276 275 274 273 272 271 274 276 278 279 279 280 281 282 283 284 285 287 287 285 283 282 282 283 284
261 261 261 260 262 264 264 263 264 265 264 262 260 257 256 257 258 260 261 262 264 266 268 268 266 265 266 266 267 269 270 271 272 272 272 272 272 272 271 272 271 271 272 273 273 272 272 270 266 265 268 270 270 272 272 272 273 273 273 274 275 276 275 275 276 276 275 274 273 273 274 276 276 278 281 282 282 284 284 284 284 283 282 282 281 281 281 281
267 267 265 266 269 270 269 268 267 267 267 266 263 259 257 258 259 262 265 267 268 269 269 269 268 267 267 267 267 268 269 270 270 271 271 271 272 272 272 272 273 274 275 276 277 277 278 278 273 269 271 272 272 272 273 274 276 277 277 276 275 274 274 274 275 276 275 275 275 274 273 272 273 277 282 283 283 283 283 282 282 282 281 281 282 282 282 282
273 272 271 271 273 273 272 271 270 269 268 268 266 263 262 263 264 266 269 270 271 271 271 271 271 270 269 269 268 268 268 269 269 270 270 270 270 271 271 273 274 275 276 278 279 280 280 279 276 272 272 274 275 275 276 278 279 279 279 278 276 274 274 273 273 273 274 274 274 274 273 272 273 277 281 282 281 281 280 279 278 278 278 279 280 282 282 282
274 274 274 274 276 275 274 273 272 270 270 271 271 270 268 268 268 270 272 273 273 273 273 272 272 272 272 271 270 269 268 268 268 269 270 269 269 269 269 270 272 273 274 275 276 277 276 275 275 271 268 270 272 275 276 277 277 278 277 277 276 275 275 274 273 272 272 271 270 269 268 270 274 276 277 278 279 278 278 277 277 278 278 277 275 276 277 278
273 274 274 274 275 275 274 273 272 272 273 273 274 273 273 273 273 272 273 273 273 273 272 271 271 272 272 272 271 271 270 268 268 268 269 269 269 269 269 270 271 272 273 273 273 274 275 276 277 276 272 270 271 273 275 276 277 279 278 276 276 275 272 272 271 271 271 271 269 268 268 270 272 269 268 272 274 275 276 277 278 278 277 275 272 271 271 273
273 274 274 274 273 273 272 271 272 273 273 274 276 276 276 275 275 274 273 273 273 272 272 271 271 271 271 271 271 270 269 268 268 267 267 268 268 269 270 271 273 274 274 273 273 273 275 276 277 277 276 274 273 273 274 276 278 278 276 276 276 273 269 268 268 270 271 272 273 274 274 274 272 266 263 266 269 270 271 272 274 275 274 273 271 270 270 272
273 273 273 272 272 272 271 271 272 273 273 275 276 275 274 274 274 274 274 274 273 273 273 273 273 272 271 271 270 269 269 269 269 268 267 268 268 269 270 272 274 274 274 273 274 274 274 273 274 274 274 273 272 272 273 274 275 274 275 276 276 273 270 268 268 270 272 272 273 275 275 275 276 275 272 270 268 268 268 269 269 269 269 270 270 271 270 270
271 271 272 271 271 270 270 271 273 274 274 274 273 272 272 272 272 273 274 274 273 273 273 273 273 272 272 271 271 270 270 270 270 269 269 269 270 270 271 272 273 273 273 273 273 273 272 272 272 273 273 273 272 272 272 272 272 271 272 272 271 270 270 270 270 273 273 273 273 275 275 276 279 281 278 274 272 271 269 267 265 265 265 265 267 269 268 265
271 271 270 270 270 269 269 270 272 272 272 272 272 271 271 271 271 272 272 272 272 273 273 273 273 273 273 273 272 271 271 271 271 271 271 271 271 270 270 271 271 272 273 273 273 273 273 273 273 274 274 274 274 274 274 274 273 272 271 269 269 269 269 271 273 275 276 276 277 276 277 279 280 278 276 275 274 273 271 268 266 267 267 265 263 265 265 265
271 271 270 270 269 269 270 270 271 270 271 271 271 271 271 271 271 271 270 270 270 271 272 272 273 273 272 272 273 273 272 272 273 273 272 272 271 271 270 270 270 271 271 273 274 275 275 274 274 274 274 275 276 276 276 276 275 274 273 273 272 272 271 272 273 274 276 277 277 277 279 282 282 280 278 276 274 272 270 268 267 269 270 267 263 263 265 266
271 271 271 270 269 269 271 271 271 271 271 271 271 271 271 270 270 270 269 269 270 270 270 270 271 271 272 272 273 273 273 272 272 273 273 273 272 272 272 271 271 271 271 272 273 273 273 273 274 274 275 276 277 277 276 275 274 274 274 274 274 274 274 273 272 273 275 276 276 277 279 281 281 281 280 278 276 274 271 268 266 266 267 267 266 265 265 264
271 271 271 270 270 271 272 271 271 271 271 271 271 271 271 271 271 271 270 269 269 269 269 269 269 270 270 271 271 271 271 271 271 271 272 272 273 272 272 272 272 271 271 271 272 272 272 272 272 273 274 274 274 274 274 273 273 273 273 273 273 272 271 270 271 272 273 273 275 277 278 278 279 281 281 280 278 275 272 269 267 265 264 264 265 266 266 265
272 271 271 271 271 271 272 272 271 271 271 271 270 271 271 272 272 272 271 270 269 268 269 269 269 268 268 268 268 269 269 269 269 270 270 271 271 272 271 271 270 271 271 270 270 271 271 272 272 272 273 272 271 271 272 272 272 272 271 271 271 270 269 269 270 270 271 271 274 277 278 279 280 281 280 278 275 273 272 272 271 269 267 265 265 265 266 266
273 272 272 271 272 272 271 271 271 271 271 271 271 272 272 272 271 271 270 270 270 270 269 269 269 268 267 267 267 268 268 269 269 270 270 270 271 271 271 270 270 269 269 269 269 269 270 272 273 273 274 274 273 273 272 271 271 271 270 268 268 269 270 269 269 269 270 272 274 276 278 279 278 275 274 274 275 276 276 276 275 273 271 269 267 265 265 265
274 274 273 273 272 272 272 271 271 271 271 271 272 272 271 271 271 270 269 269 269 269 269 268 269 269 269 268 268 268 269 270 270 270 270 269 269 269 269 269 268 267 267 269 270 271 273 275 276 276 275 274 275 275 275 274 272 269 269 272 272 271 270 269 268 269 271 273 275 276 276 276 275 274 274 276 278 278 278 277 275 274 273 271 270 269 268 267
274 274 274 273 273 273 273 272 271 271 271 272 271 271 270 269 269 269 268 268 267 267 268 268 269 270 270 270 270 270 270 270 270 269 269 268 267 267 267 267 267 267 267 267 268 269 271 272 272 271 270 271 272 273 275 275 270 267 269 273 272 268 267 266 266 266 268 272 276 276 276 276 277 278 279 280 280 278 276 273 271 270 270 270 270 268 266 265
Height
5885 5885 5885 5886 5886 5886 5886 5886 5887 5887 5887 5887 5887 5887 5887 5887 5887 5887 5887 5887 5887 5886 5886 5886 5886 5886 5886 5886 5885 5885 5885 5885 5885 5885 5885 5884 5884 5883 5883 5883 5882 5882 5881 5880 5880 5879 5879 5878 5877 5877 5876 5876 5875 5874 5874 5873 5872 5872 5871 5870 5869 5868 5869 5868 5867 5867 5866 5865 5864 5864 5863 5863 5862 5861 5861 5861 5860 5860 5860 5858 5858 5858 5856 5855 5855 5854 5854 5853
5883 5883 5884 5884 5884 5884 5884 5885 5885 5885 5885 5885 5885 5885 5885 5885 5885 5885 5885 5885 5884 5884 5884 5884 5884 5884 5884 5884 5884 5884 5883 5883 5882 5882 5883 5882 5881 5881 5881 5881 5880 5880 5879 5878 5878 5877 5877 5876 5875 5875 5874 5873 5873 5872 5871 5870 5870 5870 5869 5869 5866 5865 5867 5865 5864 5864 5864 5863 5862 5861 5860 5860 5859 5858 5859 5859 5858 5857 5857 5856 5854 5855 5855 5853 5853 5852 5852 5851
5881 5881 5881 5881 5882 5882 5882 5882 5882 5883 5883 5883 5883 5883 5883 5883 5883 5883 5882 5882 5882 5882 5882 5882 5882 5882 5882 5882 5882 5881 5881 5881 5880 5880 5880 5880 5879 5879 5879 5879 5878 5877 5877 5876 5876 5875 5875 5874 5873 5872 5871 5871 5870 5869 5868 5867 5867 5868 5867 5866 5863 5863 5864 5862 5861 5861 5860 5860 5860 5858 5857 5857 5856 5856 5857 5856 5856 5855 5854 5852 5851 5852 5852 5851 5851 5850 5849 5849
5878 5878 5879 5879 5879 5879 5880 5880 5880 5880 5880 5880 5880 5880 5880 5880 5880 5880 5880 5880 5879 5879 5879 5879 5879 5879 5879 5879 5879 5879 5879 5878 5877 5878 5878 5877 5877 5876 5876 5876 5875 5875 5874 5874 5873 5873 5872 5872 5870 5869 5869 5868 5867 5867 5865 5864 5864 5866 5865 5864 5861 5860 5862 5860 5858 5858 5857 5857 5857 5855 5854 5854 5853 5854 5854 5853 5854 5853 5849 5848 5849 5849 5849 5849 5849 5848 5847 5846
5875 5876 5876 5876 5876 5877 5877 5877 5877 5877 5878 5878 5877 5878 5877 5878 5878 5877 5877 5877 5877 5876 5876 5876 5876 5876 5876 5876 5876 5876 5876 5875 5874 5875 5875 5874 5874 5874 5873 5873 5873 5872 5872 5871 5870 5870 5869 5869 5868 5867 5866 5865 5864 5864 5863 5861 5861 5863 5863 5860 5858 5857 5859 5857 5854 5855 5854 5853 5853 5851 5851 5852 5851 5851 5851 5851 5851 5849 5845 5845 5846 5846 5846 5846 5846 5846 5845 5843
5872 5873 5873 5873 5874 5874 5874 5874 5875 5875 5875 5875 5874 5875 5874 5875 5875 5875 5874 5874 5874 5874 5873 5873 5873 5873 5873 5873 5873 5874 5874 5872 5871 5872 5871 5871 5871 5871 5870 5870 5870 5869 5869 5868 5867 5867 5866 5865 5865 5864 5863 5862 5862 5861 5860 5858 5857 5860 5860 5858 5855 5854 5856 5855 5851 5851 5850 5849 5849 5847 5848 5848 5847 5848 5849 5849 5848 5844 5841 5842 5843 5843 5843 5843 5843 5843 5842 5840
5869 5869 5870 5870 5870 5871 5871 5871 5871 5871 5871 5871 5871 5871 5871 5872 5871 5872 5871 5871 5871 5870 5870 5870 5870 5870 5870 5870 5871 5871 5872 5869 5868 5869 5869 5868 5868 5868 5867 5867 5867 5867 5866 5865 5865 5864 5863 5862 5862 5860 5860 5860 5859 5858 5857 5855 5854 5856 5857 5855 5852 5851 5853 5852 5850 5849 5847 5845 5845 5843 5844 5845 5843 5844 5847 5847 5845 5840 5837 5839 5840 5839 5839 5840 5840 5839 5838 5837
5866 5866 5866 5867 5867 5868 5868 5868 5868 5868 5868 5868 5868 5868 5868 5868 5868 5869 5868 5868 5868 5867 5867 5867 5867 5867 5867 5868 5868 5869 5869 5865 5864 5866 5866 5865 5865 5865 5865 5864 5864 5864 5863 5862 5862 5861 5860 5859 5857 5856 5857 5857 5856 5856 5854 5851 5851 5852 5853 5852 5850 5849 5849 5848 5847 5846 5844 5842 5841 5839 5840 5841 5839 5840 5844 5846 5842 5835 5833 5835 5836 5835 5836 5836 5836 5835 5834 5834
5862 5862 5863 5863 5864 5864 5864 5865 5865 5865 5865 5865 5865 5865 5865 5865 5865 5865 5865 5865 5865 5865 5864 5864 5864 5864 5864 5865 5865 5868 5867 5862 5862 5863 5863 5863 5862 5862 5862 5861 5861 5861 5860 5859 5859 5857 5856 5855 5854 5853 5853 5853 5853 5853 5851 5849 5848 5848 5848 5848 5848 5847 5846 5845 5844 5843 5841 5839 5837 5834 5835 5837 5836 5836 5842 5843 5837 5831 5830 5831 5831 5831 5832 5832 5831 5831 5830 5830
5859 5859 5859 5860 5860 5860 5861 5861 5861 5861 5861 5861 5861 5861 5861 5862 5862 5862 5862 5862 5861 5862 5861 5860 5861 5861 5862 5862 5864 5867 5863 5858 5860 5861 5860 5859 5859 5859 5859 5858 5858 5857 5857 5856 5855 5854 5853 5851 5850 5849 5848 5849 5850 5849 5848 5846 5845 5844 5843 5844 5845 5843 5843 5843 5842 5840 5837 5836 5834 5830 5830 5832 5832 5834 5839 5839 5832 5827 5827 5828 5828 5828 5828 5828 5827 5827 5826 5826
5855 5855 5856 5856 5857 5857 5857 5858 5858 5858 5858 5858 5858 5858 5858 5858 5858 5858 5858 5858 5858 5858 5858 5857 5857 5857 5858 5859 5862 5864 5859 5856 5858 5858 5857 5856 5855 5855 5855 5855 5855 5854 5854 5853 5852 5851 5850 5848 5847 5845 5844 5844 5846 5845 5844 5843 5841 5841 5839 5840 5841 5839 5840 5842 5839 5836 5833 5832 5831 5825 5823 5827 5829 5832 5836 5835 5829 5824 5823 5824 5825 5824 5824 5823 5822 5822 5821 5822
5851 5852 5852 5853 5853 5853 5854 5854 5854 5854 5854 5854 5854 5854 5854 5854 5855 5855 5855 5854 5854 5854 5854 5853 5853 5853 5854 5857 5861 5859 5856 5855 5855 5854 5853 5852 5851 5852 5852 5852 5852 5851 5851 5850 5848 5847 5846 5844 5843 5841 5840 5840 5842 5841 5840 5840 5837 5837 5835 5835 5838 5836 5836 5840 5836 5832 5830 5828 5827 5821 5817 5821 5826 5830 5832 5830 5825 5822 5821 5821 5822 5821 5820 5819 5818 5818 5817 5817
5847 5848 5848 5849 5849 5850 5850 5850 5850 5850 5850 5850 5850 5850 5849 5850 5851 5851 5851 5850 5850 5851 5851 5849 5849 5849 5849 5854 5858 5855 5854 5854 5853 5851 5848 5847 5849 5849 5849 5849 5848 5848 5847 5846 5845 5844 5842 5840 5838 5837 5836 5836 5838 5837 5836 5835 5833 5833 5832 5829 5832 5832 5833 5837 5831 5827 5826 5824 5823 5817 5811 5817 5824 5826 5828 5825 5821 5819 5818 5818 5819 5817 5816 5815 5815 5814 5813 5813
5843 5844 5844 5845 5845 5845 5846 5846 5846 5846 5846 5846 5846 5845 5845 5846 5846 5847 5847 5846 5846 5846 5846 5845 5844 5844 5844 5850 5854 5851 5851 5850 5849 5847 5844 5844 5846 5846 5846 5845 5844 5844 5843 5842 5841 5840 5838 5836 5834 5832 5833 5833 5834 5834 5832 5830 5829 5830 5828 5825 5827 5824 5826 5831 5826 5822 5823 5821 5819 5813 5805 5810 5819 5823 5824 5821 5817 5816 5814 5814 5815 5813 5812 5811 5811 5810 5810 5810
5839 5840 5840 5840 5840 5841 5841 5842 5842 5842 5842 5842 5842 5841 5841 5841 5841 5842 5842 5842 5841 5841 5841 5840 5840 5839 5839 5845 5849 5848 5847 5846 5844 5842 5841 5842 5842 5841 5842 5841 5840 5840 5839 5838 5837 5836 5834 5831 5829 5828 5829 5830 5831 5830 5827 5824 5826 5827 5823 5821 5822 5817 5817 5822 5822 5820 5821 5819 5816 5809 5801 5803 5812 5818 5820 5817 5814 5812 5809 5810 5811 5809 5808 5807 5807 5806 5806 5806
5835 5835 5836 5836 5836 5836 5837 5837 5837 5838 5838 5838 5838 5837 5837 5836 5836 5837 5837 5837 5837 5836 5836 5835 5836 5834 5833 5840 5845 5844 5843 5841 5839 5838 5837 5838 5837 5838 5838 5836 5836 5835 5834 5834 5833 5831 5829 5826 5824 5824 5825 5827 5829 5828 5822 5818 5822 5825 5818 5814 5814 5812 5810 5813 5819 5821 5819 5815 5810 5805 5798 5797 5805 5812 5815 5813 5811 5808 5804 5805 5807 5805 5805 5804 5803 5802 5802 5802
5831 5831 5831 5831 5831 5832 5832 5832 5833 5833 5833 5833 5833 5833 5832 5831 5831 5831 5832 5832 5832 5831 5831 5830 5831 5829 5828 5834 5838 5839 5839 5836 5835 5834 5833 5833 5833 5834 5833 5832 5832 5831 5830 5829 5828 5828 5825 5821 5819 5819 5821 5824 5828 5825 5817 5814 5819 5820 5814 5809 5807 5807 5806 5807 5813 5818 5816 5809 5803 5798 5793 5793 5799 5805 5807 5808 5807 5803 5800 5801 5803 5802 5802 5802 5801 5799 5799 5798
5826 5826 5826 5826 5826 5827 5827 5828 5828 5828 5828 5828 5828 5828 5827 5827 5827 5826 5827 5827 5827 5826 5825 5826 5827 5824 5825 5829 5831 5833 5834 5831 5830 5830 5829 5830 5829 5829 5828 5827 5827 5826 5825 5824 5824 5824 5820 5816 5814 5813 5817 5822 5826 5821 5812 5811 5813 5812 5809 5805 5802 5802 5803 5803 5807 5812 5810 5804 5798 5793 5788 5789 5793 5797 5800 5802 5802 5799 5798 5798 5799 5799 5799 5799 5798 5796 5795 5795
5820 5821 5821 5821 5821 5822 5822 5823 5823 5823 5823 5823 5823 5823 5823 5822 5822 5821 5822 5822 5822 5822 5820 5821 5822 5819 5820 5824 5825 5825 5826 5826 5826 5826 5826 5826 5825 5824 5823 5822 5822 5821 5820 5819 5820 5818 5814 5811 5808 5808 5815 5821 5821 5815 5808 5808 5808 5806 5803 5800 5799 5798 5798 5800 5803 5805 5803 5796 5791 5790 5785 5784 5786 5789 5794 5797 5797 5795 5795 5796 5796 5795 5795 5794 5793 5791 5791 5791
5815 5816 5816 5816 5817 5817 5817 5817 5818 5818 5818 5818 5818 5818 5818 5818 5817 5816 5816 5816 5817 5816 5815 5815 5816 5816 5817 5819 5818 5817 5818 5820 5821 5822 5822 5822 5821 5820 5818 5817 5817 5815 5814 5815 5814 5811 5809 5806 5803 5807 5815 5818 5813 5807 5805 5805 5804 5800 5797 5795 5795 5793 5793 5798 5798 5799 5798 5787 5783 5786 5782 5779 5781 5784 5788 5792 5791 5790 5792 5793 5791 5791 5790 5788 5787 5787 5788 5787
5810 5810 5811 5811 5811 5811 5812 5812 5812 5813 5813 5813 5813 5812 5812 5812 5812 5811 5810 5811 5812 5811 5810 5810 5809 5810 5814 5813 5811 5811 5811 5813 5816 5818 5817 5816 5816 5814 5813 5813 5811 5809 5810 5809 5806 5805 5804 5800 5800 5808 5812 5809 5804 5802 5802 5801 5799 5796 5794 5792 5790 5790 5790 5793 5793 5794 5793 5782 5777 5780 5776 5774 5778 5779 5782 5785 5786 5786 5787 5787 5787 5786 5784 5782 5782 5783 5784 5783
5804 5805 5805 5806 5806 5806 5806 5806 5807 5807 5807 5808 5808 5807 5807 5806 5806 5805 5804 5805 5807 5807 5805 5806 5805 5804 5807 5807 5806 5805 5804 5807 5811 5812 5811 5810 5810 5809 5808 5807 5805 5804 5803 5801 5800 5801 5798 5794 5800 5805 5803 5800 5798 5799 5798 5795 5794 5791 5790 5788 5786 5787 5787 5785 5787 5788 5786 5779 5774 5775 5770 5767 5772 5774 5777 5780 5782 5782 5782 5781 5781 5781 5780 5779 5778 5778 5779 5779
5798 5799 5799 5799 5800 5800 5800 5801 5801 5801 5801 5802 5802 5802 5801 5801 5800 5799 5798 5797 5800 5803 5801 5801 5800 5799 5801 5800 5800 5799 5799 5803 5805 5805 5804 5804 5804 5803 5802 5801 5800 5798 5796 5795 5797 5796 5790 5790 5797 5798 5795 5794 5794 5793 5792 5790 5789 5788 5787 5785 5782 5785 5783 5779 5779 5780 5780 5775 5772 5771 5765 5760 5765 5769 5772 5777 5778 5778 5777 5776 5776 5776 5777 5777 5776 5774 5773 5774
5792 5793 5793 5793 5794 5794 5794 5795 5795 5795 5795 5796 5796 5796 5796 5795 5795 5794 5793 5790 5791 5796 5798 5798 5795 5793 5794 5794 5794 5795 5796 5797 5798 5798 5798 5796 5797 5796 5796 5795 5793 5792 5792 5793 5793 5789 5785 5787 5790 5791 5789 5789 5788 5787 5786 5784 5784 5783 5782 5781 5779 5781 5779 5775 5773 5772 5771 5770 5769 5768 5761 5754 5758 5762 5767 5774 5775 5774 5773 5772 5771 5773 5774 5772 5772 5771 5768 5768
5786 5786 5786 5787 5787 5787 5788 5788 5789 5789 5789 5790 5789 5790 5789 5789 5789 5788 5787 5785 5783 5787 5791 5791 5790 5788 5788 5789 5790 5790 5790 5791 5792 5792 5790 5789 5789 5789 5789 5788 5786 5788 5788 5788 5786 5781 5780 5784 5785 5785 5784 5783 5781 5780 5780 5778 5778 5778 5777 5777 5777 5776 5774 5771 5771 5767 5764 5764 5764 5764 5758 5752 5753 5756 5761 5769 5770 5768 5768 5768 5769 5771 5771 5767 5766 5767 5765 5764
5779 5780 5780 5781 5781 5781 5781 5781 5782 5782 5783 5784 5783 5783 5783 5783 5783 5782 5782 5780 5777 5780 5782 5781 5782 5785 5785 5785 5785 5785 5784 5785 5786 5785 5784 5783 5782 5781 5781 5781 5781 5782 5782 5781 5779 5775 5776 5781 5780 5779 5778 5776 5774 5774 5775 5775 5773 5772 5771 5773 5773 5771 5769 5768 5767 5763 5760 5758 5757 5757 5755 5749 5748 5751 5757 5761 5760 5760 5762 5763 5765 5767 5768 5764 5761 5761 5761 5760
5773 5773 5774 5774 5775 5775 5775 5775 5775 5775 5777 5777 5776 5777 5777 5777 5777 5777 5777 5774 5771 5774 5773 5771 5774 5778 5781 5781 5780 5779 5778 5779 5780 5779 5778 5777 5776 5775 5775 5775 5775 5775 5775 5773 5771 5771 5773 5776 5775 5773 5772 5770 5768 5770 5772 5770 5766 5765 5766 5767 5766 5765 5765 5763 5761 5759 5757 5755 5753 5750 5749 5747 5746 5747 5750 5750 5750 5752 5755 5757 5759 5761 5763 5762 5759 5756 5755 5755
5766 5766 5767 5767 5768 5769 5769 5769 5768 5768 5770 5770 5771 5770 5770 5771 5771 5772 5772 5768 5764 5766 5765 5765 5767 5770 5773 5773 5773 5773 5772 5772 5773 5772 5772 5771 5770 5770 5768 5769 5769 5768 5768 5766 5765 5768 5768 5768 5768 5767 5766 5765 5765 5767 5766 5763 5760 5761 5762 5760 5759 5759 5759 5758 5757 5755 5753 5751 5748 5745 5745 5746 5747 5746 5744 5740 5739 5743 5748 5750 5751 5753 5756 5758 5757 5754 5750 5750
5760 5760 5760 5760 5762 5763 5762 5762 5761 5761 5763 5763 5763 5763 5764 5764 5764 5766 5766 5761 5757 5757 5759 5762 5762 5761 5763 5764 5765 5766 5765 5765 5765 5765 5765 5764 5763 5763 5763 5763 5762 5761 5761 5759 5760 5763 5762 5762 5762 5760 5759 5761 5762 5761 5759 5757 5756 5756 5756 5753 5752 5752 5751 5751 5750 5749 5748 5745 5743 5742 5743 5744 5744 5744 5741 5736 5735 5737 5740 5742 5743 5744 5746 5750 5753 5751 5748 5746
5753 5753 5753 5754 5756 5756 5757 5756 5754 5754 5756 5755 5755 5756 5756 5756 5758 5759 5757 5753 5751 5751 5754 5757 5754 5752 5754 5754 5755 5756 5756 5757 5757 5757 5757 5757 5756 5756 5756 5756 5754 5754 5754 5752 5754 5757 5756 5755 5754 5753 5754 5755 5755 5753 5752 5752 5751 5750 5749 5748 5747 5745 5744 5743 5742 5742 5741 5739 5741 5741 5742 5743 5740 5738 5736 5734 5734 5733 5733 5735 5735 5736 5736 5739 5744 5746 5745 5744
5747 5747 5747 5748 5749 5750 5751 5750 5747 5747 5749 5747 5748 5749 5749 5748 5751 5751 5746 5746 5746 5746 5749 5749 5745 5745 5746 5745 5746 5747 5747 5748 5749 5750 5750 5750 5749 5748 5748 5748 5747 5747 5747 5746 5748 5750 5750 5748 5748 5749 5748 5747 5746 5746 5746 5746 5745 5744 5743 5742 5740 5738 5738 5735 5734 5735 5732 5734 5740 5739 5739 5740 5735 5731 5731 5732 5731 5731 5731 5729 5727 5728 5728 5728 5732 5737 5737 5738
5741 5740 5741 5742 5743 5744 5745 5745 5743 5742 5742 5742 5742 5742 5741 5739 5741 5742 5741 5742 5741 5738 5743 5743 5739 5739 5739 5738 5740 5739 5739 5740 5741 5741 5742 5742 5742 5742 5741 5740 5740 5739 5739 5741 5741 5742 5743 5743 5743 5742 5742 5742 5740 5739 5739 5739 5739 5738 5736 5735 5732 5731 5730 5727 5726 5726 5726 5731 5736 5733 5732 5730 5726 5726 5729 5729 5730 5730 5729 5726 5722 5721 5721 5720 5721 5724 5727 5728
5735 5735 5735 5736 5737 5738 5738 5739 5738 5737 5736 5736 5735 5735 5733 5730 5733 5736 5736 5737 5735 5733 5737 5736 5733 5734 5733 5733 5733 5732 5732 5733 5733 5733 5732 5732 5734 5736 5736 5735 5735 5733 5732 5733 5733 5733 5736 5738 5738 5735 5736 5737 5735 5733 5733 5733 5732 5730 5730 5729 5725 5725 5721 5717 5719 5719 5721 5727 5728 5725 5722 5718 5717 5722 5725 5727 5728 5727 5724 5723 5722 5718 5716 5715 5713 5713 5716 5718
5728 5729 5730 5730 5731 5732 5732 5731 5731 5731 5730 5729 5728 5727 5724 5723 5727 5731 5731 5732 5731 5729 5731 5730 5728 5728 5728 5728 5728 5727 5726 5725 5726 5726 5724 5724 5725 5728 5730 5730 5730 5728 5726 5725 5725 5726 5726 5731 5734 5730 5729 5731 5729 5727 5726 5725 5725 5723 5724 5722 5718 5719 5715 5710 5713 5714 5713 5716 5716 5714 5711 5709 5712 5717 5718 5720 5721 5719 5717 5716 5717 5716 5714 5711 5708 5704 5705 5706
5721 5722 5723 5725 5726 5725 5724 5723 5723 5722 5721 5721 5720 5716 5716 5719 5723 5725 5725 5726 5725 5723 5725 5724 5723 5722 5722 5723 5722 5721 5719 5716 5718 5719 5717 5717 5717 5719 5721 5722 5723 5722 5720 5718 5719 5719 5716 5722 5729 5723 5720 5724 5722 5720 5720 5717 5716 5716 5717 5713 5711 5715 5712 5705 5704 5705 5704 5702 5702 5703 5699 5701 5708 5710 5711 5714 5712 5711 5710 5708 5709 5709 5707 5706 5704 5700 5698 5697
5714 5715 5716 5718 5719 5717 5715 5714 5714 5712 5711 5712 5709 5706 5710 5715 5716 5717 5717 5718 5717 5717 5717 5717 5717 5717 5716 5716 5715 5715 5713 5710 5709 5710 5710 5710 5710 5711 5713 5714 5714 5714 5712 5711 5711 5710 5706 5713 5722 5717 5712 5715 5714 5713 5713 5709 5708 5709 5708 5707 5708 5709 5705 5698 5693 5695 5696 5687 5689 5696 5692 5693 5701 5701 5704 5707 5704 5704 5704 5703 5702 5699 5698 5698 5697 5696 5693 5692
5706 5707 5709 5712 5711 5708 5706 5707 5705 5702 5701 5700 5697 5699 5706 5708 5709 5710 5710 5710 5710 5709 5709 5708 5709 5710 5708 5708 5709 5709 5706 5704 5703 5701 5702 5703 5701 5703 5706 5707 5706 5706 5706 5704 5702 5701 5697 5700 5712 5713 5705 5705 5706 5704 5704 5702 5700 5699 5700 5703 5703 5698 5695 5692 5683 5682 5684 5675 5675 5686 5687 5688 5692 5690 5694 5699 5698 5698 5697 5695 5693 5690 5689 5689 5689 5689 5687 5685
5697 5698 5701 5705 5702 5698 5699 5698 5696 5694 5692 5689 5689 5694 5699 5700 5703 5705 5703 5703 5703 5701 5700 5699 5700 5701 5700 5701 5704 5702 5698 5697 5696 5694 5694 5695 5693 5695 5699 5699 5699 5699 5699 5696 5692 5692 5691 5688 5697 5706 5699 5693 5696 5696 5694 5694 5693 5690 5690 5694 5693 5688 5686 5685 5676 5671 5672 5665 5662 5670 5675 5679 5683 5684 5687 5690 5691 5691 5689 5685 5683 5682 5682 5680 5679 5680 5678 5677
5687 5688 5692 5695 5692 5688 5689 5688 5687 5686 5682 5680 5684 5689 5692 5694 5696 5697 5695 5695 5694 5691 5690 5691 5692 5691 5691 5694 5696 5695 5693 5690 5688 5687 5686 5686 5686 5689 5692 5691 5691 5692 5691 5690 5685 5684 5685 5678 5681 5695 5693 5683 5684 5687 5685 5684 5684 5681 5679 5680 5680 5678 5676 5673 5668 5665 5663 5657 5653 5655 5656 5662 5675 5684 5684 5682 5681 5680 5678 5676 5674 5674 5675 5674 5673 5670 5668 5667
5679 5679 5684 5686 5681 5678 5679 5677 5675 5675 5672 5673 5679 5682 5683 5685 5687 5688 5687 5685 5683 5681 5680 5682 5682 5680 5682 5686 5686 5686 5685 5682 5681 5680 5677 5677 5679 5682 5684 5684 5685 5684 5683 5684 5679 5675 5676 5670 5667 5678 5684 5677 5676 5678 5676 5675 5675 5672 5669 5669 5669 5669 5667 5661 5657 5658 5656 5649 5645 5643 5638 5644 5666 5680 5680 5675 5672 5668 5667 5667 5667 5668 5668 5666 5666 5663 5660 5658
5671 5673 5677 5678 5672 5670 5669 5665 5664 5666 5664 5666 5672 5673 5673 5675 5678 5680 5679 5675 5673 5672 5670 5671 5672 5672 5673 5675 5676 5676 5674 5671 5673 5672 5668 5669 5671 5673 5676 5677 5677 5676 5674 5674 5670 5665 5665 5660 5655 5660 5667 5669 5671 5671 5667 5664 5665 5663 5659 5659 5660 5660 5658 5652 5646 5649 5650 5641 5637 5634 5625 5628 5652 5670 5673 5670 5666 5662 5660 5659 5659 5660 5658 5655 5655 5654 5652 5649
5663 5665 5669 5668 5664 5663 5660 5655 5656 5658 5655 5658 5664 5665 5663 5665 5667 5669 5668 5665 5663 5662 5661 5660 5663 5664 5663 5664 5666 5665 5662 5659 5662 5662 5661 5662 5663 5663 5668 5670 5668 5666 5663 5661 5660 5658 5656 5651 5646 5646 5650 5655 5660 5662 5659 5655 5656 5654 5649 5650 5652 5651 5650 5644 5637 5640 5641 5633 5630 5627 5615 5615 5637 5659 5666 5664 5660 5657 5656 5653 5651 5649 5647 5645 5644 5644 5642 5640
5655 5657 5658 5657 5656 5654 5649 5646 5649 5650 5648 5652 5657 5655 5653 5654 5656 5658 5659 5656 5653 5652 5651 5651 5653 5653 5653 5655 5655 5653 5652 5650 5649 5652 5653 5652 5653 5657 5660 5660 5658 5655 5651 5650 5651 5650 5647 5641 5637 5636 5637 5640 5646 5652 5652 5649 5648 5644 5642 5646 5645 5642 5642 5637 5630 5630 5627 5621 5624 5619 5605 5606 5627 5646 5654 5654 5652 5651 5649 5648 5645 5640 5638 5636 5633 5632 5631 5629
5646 5648 5649 5647 5645 5643 5639 5638 5642 5642 5641 5644 5645 5644 5645 5645 5646 5651 5651 5647 5643 5643 5642 5641 5642 5642 5642 5644 5643 5643 5644 5639 5636 5641 5643 5642 5644 5650 5652 5649 5647 5644 5641 5641 5642 5638 5634 5632 5629 5627 5626 5627 5632 5639 5643 5645 5643 5637 5637 5642 5638 5635 5635 5628 5623 5620 5611 5610 5617 5608 5593 5603 5623 5633 5637 5642 5643 5643 5643 5642 5639 5633 5630 5628 5623 5620 5619 5618
5636 5638 5639 5637 5635 5632 5631 5633 5635 5632 5632 5634 5633 5634 5636 5635 5638 5644 5642 5637 5635 5635 5633 5632 5632 5632 5632 5633 5632 5632 5633 5630 5627 5629 5632 5633 5635 5639 5640 5638 5636 5636 5633 5631 5631 5627 5623 5622 5621 5618 5615 5616 5620 5626 5632 5635 5633 5627 5627 5630 5629 5629 5627 5620 5615 5609 5599 5601 5606 5595 5586 5597 5614 5620 5624 5630 5633 5634 5636 5635 5633 5628 5621 5618 5614 5608 5605 5605
5625 5627 5629 5627 5624 5622 5623 5626 5625 5621 5623 5625 5622 5624 5627 5626 5629 5634 5632 5628 5627 5627 5625 5623 5622 5622 5621 5623 5622 5619 5621 5622 5618 5617 5620 5623 5624 5625 5627 5628 5627 5627 5625 5623 5622 5618 5612 5611 5612 5609 5605 5606 5610 5615 5621 5622 5616 5612 5613 5615 5617 5618 5616 5613 5605 5596 5594 5593 5586 5584 5586 5588 5594 5605 5611 5617 5621 5622 5624 5627 5626 5621 5611 5604 5601 5595 5592 5594
5615 5616 5618 5616 5612 5613 5616 5618 5616 5612 5614 5615 5611 5612 5618 5619 5620 5621 5621 5620 5619 5618 5616 5613 5613 5613 5611 5614 5612 5608 5610 5612 5609 5608 5609 5610 5611 5613 5616 5617 5616 5615 5617 5616 5613 5610 5602 5598 5602 5601 5596 5598 5601 5603 5608 5609 5603 5601 5601 5601 5604 5605 5604 5601 5591 5587 5591 5582 5567 5576 5586 5577 5577 5590 5595 5599 5605 5606 5609 5613 5612 5609 5599 5589 5586 5586 5586 5588
5605 5607 5607 5605 5603 5605 5607 5608 5607 5604 5604 5605 5602 5602 5606 5608 5609 5610 5610 5610 5609 5609 5606 5603 5605 5605 5603 5604 5602 5597 5599 5600 5599 5600 5600 5598 5599 5602 5605 5607 5605 5604 5607 5605 5602 5601 5593 5588 5593 5594 5588 5590 5592 5591 5594 5595 5591 5591 5591 5589 5592 5594 5592 5587 5581 5581 5583 5569 5557 5569 5576 5567 5569 5578 5580 5583 5587 5588 5590 5593 5593 5592 5586 5580 5580 5581 5581 5581
5596 5597 5597 5594 5594 5598 5598 5596 5597 5595 5594 5595 5592 5593 5596 5598 5599 5600 5599 5597 5596 5599 5597 5593 5594 5595 5594 5594 5592 5588 5589 5589 5588 5590 5591 5590 5589 5589 5592 5596 5595 5594 5595 5594 5592 5591 5583 5578 5583 5585 5578 5578 5581 5581 5582 5582 5580 5579 5579 5579 5580 5580 5579 5577 5574 5574 5571 5560 5556 5560 5558 5557 5565 5568 5566 5568 5569 5570 5573 5575 5576 5576 5574 5574 5575 5574 5572 5571
5585 5586 5586 5584 5584 5589 5588 5585 5586 5585 5585 5585 5583 5584 5587 5587 5588 5590 5588 5584 5584 5587 5588 5584 5582 5583 5584 5584 5583 5579 5579 5580 5579 5579 5580 5580 5580 5579 5579 5582 5584 5585 5584 5583 5582 5581 5575 5570 5573 5575 5567 5564 5568 5570 5570 5570 5568 5565 5565 5568 5570 5568 5567 5567 5564 5564 5561 5554 5553 5553 5548 5548 5553 5553 5553 5555 5556 5558 5560 5561 5561 5560 5560 5561 5561 5560 5560 5559
5574 5573 5575 5574 5574 5578 5578 5576 5576 5574 5574 5577 5575 5574 5577 5577 5577 5578 5577 5576 5574 5575 5576 5574 5572 5572 5572 5572 5573 5570 5570 5571 5570 5569 5570 5570 5571 5571 5569 5570 5573 5574 5574 5575 5572 5571 5568 5563 5563 5564 5555 5551 5559 5560 5556 5557 5556 5551 5551 5557 5561 5559 5556 5554 5554 5554 5551 5546 5545 5544 5540 5535 5534 5536 5541 5545 5546 5546 5547 5548 5547 5545 5544 5546 5545 5545 5546 5545
5564 5562 5563 5563 5563 5568 5568 5565 5566 5564 5565 5569 5567 5564 5566 5567 5567 5566 5566 5566 5565 5565 5566 5565 5564 5563 5562 5561 5561 5560 5561 5561 5559 5558 5560 5560 5561 5562 5561 5562 5563 5562 5565 5567 5564 5563 5562 5556 5555 5555 5544 5541 5552 5552 5547 5546 5539 5536 5546 5552 5550 5549 5547 5543 5543 5543 5541 5538 5535 5532 5529 5525 5523 5525 5529 5533 5534 5534 5533 5534 5533 5532 5532 5533 5533 5532 5532 5531